New Roads False River Regiona, LA

12:53 AM CST on November 18, 2019 (GMT -0600)
False River

Weather History for KHZR - August, 2019

Change the Weather History Date:

Monday, August 5, 2019

  Actual Average (WUND) Record (WUND)
Temperature  
Mean Temperature 82 °F -  
Max Temperature 91 °F - - (-1)
Min Temperature 73 °F - - (-1)
Cooling Degree Days 17    
Growing Degree Days 32 (Base 50)    
Moisture  
Dew Point 74 °F    
Average Humidity 79    
Maximum Humidity 100    
Minimum Humidity 49    
Precipitation  
Precipitation 0.00 in - - ()
Sea Level Pressure  
Sea Level Pressure 29.96 in    
Wind  
Wind Speed 1 mph (West)    
Max Wind Speed 8 mph    
Max Gust Speed -    
Visibility 9 miles    
Events      
Averages and records for this station are not official NWS values.
T = Trace of Precipitation, MM = Missing Value Source: NWS Daily Summary

Daily Weather History Graph

Daily Weather History Graph

Search for Another Location

Airport or City:

Astronomy

Aug. 05, 2019 Rise Set
Actual Time 6:26 AM CDT 7:57 PM CDT
Civil Twilight 6:00 AM CDT 8:23 PM CDT
Nautical Twilight 5:28 AM CDT 8:54 PM CDT
Astronomical Twilight 4:56 AM CDT 9:26 PM CDT
Moon 11:22 AM CDT (8/5) 11:32 PM CDT (8/5)
Length of Visible Light 14h 23m
Length of Day
13h 31m
Waxing Crescent, 28% of the Moon is Illuminated
Aug 5
Waxing Crescent
Aug 7
First Quarter
Aug 15
Full
Aug 23
Last Quarter
Aug 30
New

Hourly Weather History & Observations

Time (CDT) Temp. Heat Index Dew Point Humidity Pressure Visibility Wind Dir Wind Speed Gust Speed Precip Events Conditions
12:16 AM 75.2 °F - 75.2 °F 100% 29.95 in 10.0 mi Calm Calm - N/A   Clear
12:36 AM 75.2 °F - 75.2 °F 100% 29.95 in 10.0 mi Calm Calm - N/A   Clear
12:57 AM 75.2 °F - 75.2 °F 100% 29.95 in 7.0 mi Calm Calm - N/A   Clear
1:16 AM 75.2 °F - 75.2 °F 100% 29.96 in 5.0 mi Calm Calm - N/A   Clear
1:36 AM 75.2 °F - 75.2 °F 100% 29.96 in 4.0 mi Calm Calm - N/A   Clear
1:56 AM 75.2 °F - 75.2 °F 100% 29.96 in 5.0 mi Calm Calm - N/A   Clear
2:17 AM 73.4 °F - 73.4 °F 100% 29.95 in 4.0 mi Calm Calm - N/A   Clear
2:36 AM 73.4 °F - 73.4 °F 100% 29.96 in 4.0 mi Calm Calm - N/A   Scattered Clouds
2:56 AM 73.4 °F - 73.4 °F 100% 29.95 in 5.0 mi SW 3.5 mph - N/A   Scattered Clouds
3:16 AM 73.4 °F - 73.4 °F 100% 29.95 in 5.0 mi WSW 3.5 mph - N/A   Clear
3:36 AM 73.4 °F - 73.4 °F 100% 29.95 in 7.0 mi Calm Calm - N/A   Clear
3:56 AM 73.4 °F - 73.4 °F 100% 29.95 in 10.0 mi Calm Calm - N/A   Clear
4:15 AM 73.4 °F - 73.4 °F 100% 29.95 in 10.0 mi Calm Calm - N/A   Clear
4:36 AM 73.4 °F - 73.4 °F 100% 29.95 in 7.0 mi Calm Calm - N/A   Clear
4:56 AM 73.4 °F - 73.4 °F 100% 29.95 in 5.0 mi Calm Calm - N/A   Clear
5:37 AM 73.4 °F - 73.4 °F 100% 29.96 in 7.0 mi SSE 3.5 mph - N/A   Clear
6:16 AM 73.4 °F - 73.4 °F 100% 29.97 in 7.0 mi Calm Calm - N/A   Clear
6:36 AM 73.4 °F - 73.4 °F 100% 29.98 in 7.0 mi Calm Calm - N/A   Clear
6:58 AM 73.4 °F - 73.4 °F 100% 29.99 in 7.0 mi Calm Calm - N/A   Clear
7:17 AM 73.4 °F - 73.4 °F 100% 29.99 in 7.0 mi Calm Calm - N/A   Clear
7:35 AM 75.2 °F - 73.4 °F 94% 29.99 in 10.0 mi Calm Calm - N/A   Scattered Clouds
7:56 AM 75.2 °F - 75.2 °F 100% 30.00 in 10.0 mi Calm Calm - N/A   Clear
8:16 AM 77.0 °F - 75.2 °F 94% 30.00 in 10.0 mi Calm Calm - N/A   Clear
8:36 AM 78.8 °F - 75.2 °F 89% 30.00 in 10.0 mi West 3.5 mph - N/A   Clear
8:56 AM 80.6 °F 86.2 °F 75.2 °F 84% 30.00 in 10.0 mi WNW 3.5 mph - N/A   Clear
9:16 AM 82.4 °F 89.5 °F 75.2 °F 79% 30.00 in 10.0 mi West 3.5 mph - N/A   Clear
9:37 AM 82.4 °F 89.5 °F 75.2 °F 79% 30.00 in 10.0 mi West 6.9 mph - N/A   Clear
9:56 AM 82.4 °F 89.5 °F 75.2 °F 79% 30.00 in 10.0 mi WNW 6.9 mph - N/A   Scattered Clouds
10:16 AM 84.2 °F 92.3 °F 75.2 °F 74% 30.00 in 10.0 mi West 8.1 mph - N/A   Scattered Clouds
10:36 AM 84.2 °F 92.3 °F 75.2 °F 74% 30.00 in 10.0 mi WNW 4.6 mph - N/A   Clear
10:56 AM 86.0 °F 93.4 °F 73.4 °F 66% 30.00 in 10.0 mi West 5.8 mph - N/A   Clear
11:16 AM 86.0 °F 93.4 °F 73.4 °F 66% 30.00 in 10.0 mi WNW 5.8 mph - N/A   Clear
11:36 AM 87.8 °F 95.6 °F 73.4 °F 62% 30.00 in 10.0 mi WNW 5.8 mph - N/A   Scattered Clouds
11:56 AM 87.8 °F 95.6 °F 73.4 °F 62% 30.00 in 10.0 mi Calm Calm - N/A   Scattered Clouds
12:16 PM 87.8 °F 95.6 °F 73.4 °F 62% 30.00 in 10.0 mi WNW 6.9 mph - N/A   Scattered Clouds
12:38 PM 87.8 °F 95.6 °F 73.4 °F 62% 29.99 in 10.0 mi NW 4.6 mph - N/A   Scattered Clouds
12:56 PM 89.6 °F 98.2 °F 73.4 °F 59% 29.99 in 10.0 mi West 3.5 mph - N/A   Clear
1:17 PM 89.6 °F 96.2 °F 71.6 °F 55% 29.98 in 10.0 mi Calm Calm - N/A   Clear
1:36 PM 89.6 °F 98.2 °F 73.4 °F 59% 29.97 in 10.0 mi NW 5.8 mph - N/A   Clear
1:56 PM 89.6 °F 98.2 °F 73.4 °F 59% 29.97 in 10.0 mi NW 5.8 mph - N/A   Clear
2:16 PM 89.6 °F 98.2 °F 73.4 °F 59% 29.96 in 10.0 mi West 3.5 mph - N/A   Clear
2:36 PM 89.6 °F 96.2 °F 71.6 °F 55% 29.96 in 10.0 mi West 6.9 mph - N/A   Scattered Clouds
2:56 PM 89.6 °F 96.2 °F 71.6 °F 55% 29.95 in 10.0 mi Calm Calm - N/A   Scattered Clouds
3:16 PM 91.4 °F 100.1 °F 73.4 °F 55% 29.94 in 10.0 mi NW 5.8 mph - N/A   Scattered Clouds
3:36 PM 89.6 °F 96.2 °F 71.6 °F 55% 29.94 in 10.0 mi Calm Calm - N/A   Clear
3:56 PM 89.6 °F 96.2 °F 71.6 °F 55% 29.94 in 10.0 mi Calm Calm - N/A   Clear
4:16 PM 91.4 °F 98.4 °F 71.6 °F 52% 29.93 in 10.0 mi WSW 4.6 mph - N/A   Clear
4:38 PM 91.4 °F 98.4 °F 71.6 °F 52% 29.93 in 10.0 mi Calm Calm - N/A   Clear
4:57 PM 91.4 °F 98.4 °F 71.6 °F 52% 29.93 in 10.0 mi Calm Calm - N/A   Clear
5:17 PM 91.4 °F 98.4 °F 71.6 °F 52% 29.92 in 10.0 mi Calm Calm - N/A   Clear
5:37 PM 91.4 °F 98.4 °F 71.6 °F 52% 29.92 in 10.0 mi Calm Calm - N/A   Clear
5:57 PM 91.4 °F 96.8 °F 69.8 °F 49% 29.92 in 10.0 mi Calm Calm - N/A   Clear
6:36 PM 89.6 °F 98.2 °F 73.4 °F 59% 29.92 in 10.0 mi South 3.5 mph - N/A   Clear
6:56 PM 89.6 °F 98.2 °F 73.4 °F 59% 29.93 in 10.0 mi Calm Calm - N/A   Clear
7:16 PM 87.8 °F 95.6 °F 73.4 °F 62% 29.93 in 10.0 mi Calm Calm - N/A   Clear
7:38 PM 87.8 °F 97.6 °F 75.2 °F 66% 29.93 in 10.0 mi Calm Calm - N/A   Clear
7:56 PM 86.0 °F 95.1 °F 75.2 °F 70% 29.93 in 10.0 mi Calm Calm - N/A   Clear
8:15 PM 84.2 °F 92.3 °F 75.2 °F 74% 29.93 in 10.0 mi Calm Calm - N/A   Scattered Clouds
8:37 PM 84.2 °F 92.3 °F 75.2 °F 74% 29.94 in 10.0 mi South 5.8 mph - N/A   Overcast
8:56 PM 82.4 °F 89.5 °F 75.2 °F 79% 29.94 in 10.0 mi Calm Calm - N/A   Scattered Clouds
9:56 PM 80.6 °F 86.2 °F 75.2 °F 84% 29.95 in 10.0 mi South 5.8 mph - N/A   Clear
10:16 PM 80.6 °F 86.2 °F 75.2 °F 84% 29.96 in 10.0 mi Calm Calm - N/A   Clear
10:36 PM 80.6 °F 87.1 °F 77.0 °F 89% 29.95 in 10.0 mi Calm Calm - N/A   Clear
10:56 PM 78.8 °F - 77.0 °F 94% 29.95 in 10.0 mi Calm Calm - N/A   Clear
11:17 PM 78.8 °F - 77.0 °F 94% 29.95 in 10.0 mi Calm Calm - N/A   Clear
11:56 PM 77.0 °F - 77.0 °F 100% 29.95 in 10.0 mi Calm Calm - N/A   Clear